Lapse_Rate
5.9 6.2 6.4 6.4 6.3 6.3 6.3 6.7 7.0 7.6 7.6 7.3 7.2 7.1 6.9 6.9 6.8 7.3 7.3 6.5 6.5 6.3 5.6 5.7 5.6 5.4 5.4 5.4 5.3 5.5 5.4 5.3 5.3 5.1 5.2 5.2 5.7 5.8 5.9 5.8 5.8 5.6 5.4 5.6
6.1 6.6 6.5 6.4 6.3 6.4 6.5 6.8 7.3 7.8 7.7 7.6 7.4 7.1 7.2 7.2 7.6 7.2 7.3 7.3 6.9 6.4 6.0 5.8 5.7 5.6 5.5 5.5 5.5 5.5 5.6 5.8 5.6 5.4 5.1 5.0 5.2 5.5 5.7 5.7 5.9 5.9 5.6 5.7
6.2 6.7 6.5 6.4 6.4 6.5 6.7 7.1 7.4 7.5 7.4 7.7 7.7 7.4 7.3 7.9 7.8 7.6 7.7 7.4 7.2 6.7 6.2 6.0 5.7 5.8 5.5 5.7 5.8 5.7 5.6 5.7 5.8 5.8 5.5 5.5 5.7 5.8 5.9 5.8 6.4 6.2 6.1 6.0
6.3 6.6 6.7 6.3 6.5 6.5 6.8 7.7 7.4 7.3 7.1 7.5 7.1 7.0 7.7 7.9 7.9 7.9 8.0 7.8 7.2 6.9 6.3 6.0 5.8 5.7 5.6 5.6 5.7 5.7 5.6 5.7 5.8 6.0 6.1 5.9 5.9 6.1 6.0 5.9 5.8 6.0 6.0 6.0
6.8 6.5 6.7 6.8 7.1 6.8 7.4 7.5 7.1 7.2 7.0 6.4 6.8 6.4 8.0 8.0 8.5 8.4 8.4 8.5 7.9 7.4 6.6 6.4 6.1 5.9 5.7 5.5 5.7 5.8 5.8 5.6 5.8 6.1 6.1 6.1 6.2 6.0 5.9 6.0 5.9 5.8 5.7 6.0
6.7 6.7 6.6 7.0 7.1 7.0 7.5 7.2 7.4 7.4 7.2 5.6 7.5 6.5 7.8 8.3 8.6 9.2 9.1 8.6 8.2 7.7 7.1 6.6 6.3 6.1 5.9 5.7 5.7 5.8 6.0 5.9 5.9 6.1 6.2 6.1 6.1 6.1 6.1 6.0 6.0 6.0 5.9 5.9
6.6 6.8 6.9 7.2 7.4 7.4 7.5 7.6 7.5 6.7 6.1 5.5 7.9 6.6 8.0 8.7 8.7 9.1 9.2 8.7 8.1 7.9 7.2 6.9 6.5 6.5 6.3 5.9 5.8 5.9 6.1 6.1 6.1 6.2 6.4 6.3 6.0 6.1 6.1 6.1 5.9 5.8 5.9 5.8
6.6 7.2 7.4 7.7 7.8 8.0 8.1 8.3 7.8 6.5 5.4 6.7 7.2 6.6 7.6 8.1 8.7 9.0 8.9 8.5 8.1 7.7 7.3 7.0 6.7 6.4 6.3 6.0 5.9 6.0 6.0 5.9 5.8 6.0 6.3 6.5 6.4 6.3 6.1 5.8 5.7 5.9 6.0 6.0
7.0 7.1 7.5 7.4 8.0 8.5 8.3 8.4 8.4 8.3 6.7 6.2 7.7 7.7 7.5 8.1 8.6 9.1 9.0 8.3 8.3 8.1 7.5 7.5 7.0 6.7 6.7 6.7 6.4 6.3 6.2 6.0 5.9 5.8 6.1 6.4 6.4 6.4 6.2 6.1 6.1 6.1 5.9 6.0
7.4 7.0 7.4 7.6 7.6 8.1 8.2 8.5 8.5 8.4 6.9 6.3 6.6 7.4 7.6 8.1 8.7 9.0 8.9 8.4 8.1 8.2 8.0 7.6 7.6 7.1 7.1 6.9 6.8 6.6 6.4 6.3 6.0 5.8 5.9 6.3 6.4 6.3 6.2 6.3 6.2 6.2 6.2 6.2
7.9 7.5 8.0 7.6 7.6 8.2 8.6 8.6 8.8 8.3 8.2 6.4 5.6 7.3 8.3 8.5 8.7 8.8 8.9 9.0 8.5 8.2 8.4 8.3 8.1 7.6 7.5 7.4 7.0 6.8 6.6 6.5 6.3 6.2 6.2 6.3 6.6 6.3 6.3 6.5 6.4 6.1 5.9 6.0
7.9 7.6 7.8 7.9 8.6 8.3 8.1 8.5 8.7 8.8 8.4 8.1 7.6 7.6 8.5 8.4 8.7 8.8 8.9 9.0 8.8 8.2 8.7 8.5 8.3 7.8 7.7 7.5 7.4 7.2 7.0 6.9 6.9 6.2 6.1 6.3 6.3 6.6 6.5 6.5 6.4 6.3 6.2 5.8
7.7 7.5 7.7 8.4 8.6 8.6 8.2 8.6 8.5 8.9 8.9 8.5 7.6 7.9 8.9 8.7 8.7 8.9 8.7 9.0 8.9 8.3 8.3 8.7 8.4 8.3 8.0 7.8 7.4 7.4 7.3 7.0 6.8 6.0 6.2 6.4 6.3 6.5 6.4 6.2 6.1 6.1 6.1 6.0
8.0 7.9 7.8 7.6 8.0 8.1 8.3 8.5 8.6 8.8 8.7 8.9 8.8 8.7 8.8 9.0 8.7 8.8 8.9 9.2 9.0 8.6 8.5 8.8 8.7 8.5 8.1 8.0 7.9 7.7 7.5 7.2 7.0 6.9 6.6 6.4 6.2 6.4 6.0 5.9 5.9 5.9 6.1 6.3
7.7 7.9 8.0 8.1 8.0 7.8 8.2 8.4 8.8 8.9 8.9 9.0 8.9 8.8 9.1 9.0 8.9 9.0 9.2 9.2 9.0 8.8 8.6 8.6 8.5 8.3 8.0 8.2 8.0 7.7 7.7 7.1 6.9 7.0 6.9 6.6 6.5 5.1 6.0 5.8 6.0 6.0 6.1 6.0
7.3 7.4 7.3 7.9 8.4 8.2 7.8 8.0 8.2 8.5 8.7 8.7 8.8 9.1 8.9 9.1 9.1 9.2 9.5 9.5 9.3 9.1 8.7 8.7 8.6 8.3 8.0 8.2 8.4 7.8 7.4 7.2 6.9 6.9 6.8 6.4 6.2 6.2 6.3 6.3 6.2 6.1 6.2 6.1
7.1 7.2 7.0 6.8 7.8 7.9 7.7 8.1 8.4 8.4 8.5 8.8 8.9 9.1 9.2 9.0 9.1 9.3 9.5 9.5 9.4 9.1 8.9 8.7 8.8 8.1 7.9 7.9 7.5 7.5 7.6 7.2 6.9 6.5 6.6 6.5 6.2 6.4 6.3 6.4 6.5 6.4 6.3 6.3
6.4 6.6 6.9 6.6 7.0 6.5 7.7 8.3 8.7 8.8 8.9 8.7 8.8 8.9 9.1 9.2 9.1 9.0 9.2 9.3 9.3 9.1 8.9 8.9 8.2 7.9 7.9 7.7 7.6 7.3 7.6 7.4 6.8 6.3 6.2 6.7 6.6 6.6 6.5 6.2 6.7 6.3 6.2 6.3
6.7 6.8 6.7 6.7 7.0 6.9 7.6 7.9 8.2 8.4 8.7 8.7 8.7 9.0 9.0 9.2 9.2 9.1 9.1 9.2 9.1 9.0 8.9 8.4 7.9 7.8 7.6 7.4 7.4 7.0 7.0 6.6 6.9 6.6 6.6 6.6 6.3 6.5 6.5 6.7 6.1 6.2 6.3 6.1
7.3 7.1 7.1 6.7 6.6 6.0 7.2 8.1 8.0 8.1 8.1 8.4 8.8 8.7 8.5 8.7 9.0 9.2 9.2 9.2 9.0 8.9 8.9 8.2 8.0 7.8 7.4 7.1 6.9 7.1 7.6 6.9 6.6 6.8 6.8 6.5 6.6 6.7 6.2 6.2 6.2 6.1 5.8 5.8
7.3 7.2 6.9 6.9 6.7 6.9 7.7 7.8 8.2 8.1 8.0 8.3 8.4 8.5 8.5 8.6 8.8 9.2 9.2 9.2 9.0 8.6 8.7 8.3 8.2 7.5 7.1 6.5 6.2 5.5 6.4 5.3 6.8 7.1 6.8 6.7 6.8 6.5 6.2 6.1 6.0 5.9 5.7 5.6
7.0 7.1 6.9 6.9 6.7 6.7 7.3 7.9 8.0 7.8 7.9 8.1 7.8 8.2 8.3 8.6 8.6 8.9 9.1 9.0 9.2 8.8 8.8 8.5 7.9 7.3 6.9 6.7 6.9 6.3 6.3 6.5 7.1 6.9 6.5 6.5 6.3 6.2 6.0 6.0 5.9 5.7 5.6 5.4
6.7 6.9 6.8 6.9 7.1 7.1 6.9 7.0 7.4 8.0 8.0 8.1 7.9 7.8 8.3 8.6 8.9 8.5 8.6 8.6 8.9 8.7 8.6 8.0 7.6 7.5 7.2 7.1 7.3 7.1 6.7 6.6 6.4 6.7 6.8 6.5 6.2 6.0 6.0 5.9 5.7 5.5 5.4 5.3
6.5 6.6 6.4 6.6 6.8 7.0 7.2 7.2 7.3 7.3 7.6 7.9 8.0 8.2 8.3 8.4 8.7 9.1 8.9 8.5 8.4 8.5 8.5 7.7 7.5 7.3 6.9 6.9 7.1 7.0 7.0 6.6 6.7 6.5 6.3 6.3 6.0 6.0 5.8 5.6 5.5 5.4 5.4 5.6
6.2 6.2 6.4 6.5 6.9 7.0 7.0 7.2 7.4 7.3 7.5 7.5 7.4 7.7 7.9 8.2 8.2 8.4 9.0 8.6 8.0 8.1 8.0 7.8 7.6 7.3 6.7 6.7 6.4 6.2 6.1 6.2 6.1 5.9 6.0 6.1 6.0 5.6 5.4 5.3 5.4 5.5 5.8 5.9
6.3 6.4 6.1 6.3 7.1 6.3 6.9 6.9 7.1 7.3 7.3 7.2 7.5 7.6 7.7 8.1 8.1 8.3 8.9 8.7 8.2 8.1 7.7 7.6 7.3 7.0 6.4 6.2 6.1 6.0 5.9 5.7 5.7 5.9 6.0 5.7 5.4 5.3 5.4 5.4 5.5 5.9 6.0 6.0
Wind_Speed
1 3 7 9 6 3 1 2 6 3 4 5 12 10 9 11 10 11 11 12 12 14 11 10 11 10 9 8 8 8 7 6 4 2 3 2 3 3 3 6 9 11 7 7
4 8 6 6 4 3 3 3 7 6 3 5 3 9 9 11 20 19 17 15 15 13 9 12 13 13 12 12 10 9 9 7 6 3 3 2 2 2 1 2 6 7 9 9
6 4 5 7 5 4 3 5 4 8 2 3 4 8 5 6 6 14 16 17 14 17 14 14 15 15 13 13 13 12 12 9 7 6 2 2 1 1 1 2 1 4 11 11
5 5 3 3 5 7 5 8 7 3 2 3 4 4 5 5 7 12 16 17 17 16 15 15 16 15 16 16 12 11 11 9 8 8 4 5 3 4 3 3 3 3 9 10
8 6 5 4 8 8 10 5 6 3 5 1 2 2 7 3 6 13 15 18 19 18 18 17 18 19 19 14 14 13 11 10 9 10 9 6 5 3 2 2 3 2 3 8
7 3 6 9 6 9 4 3 6 4 3 1 7 6 6 5 9 6 6 17 18 16 17 17 19 16 15 12 12 12 13 12 11 11 11 10 8 6 3 3 3 3 2 3
5 6 4 5 2 2 5 5 3 3 2 6 2 3 9 8 11 11 8 13 15 14 15 14 15 15 13 15 14 12 13 13 12 12 11 12 11 8 8 6 4 3 3 3
4 7 6 4 9 7 6 8 6 5 4 5 3 6 6 8 8 8 9 8 11 12 13 15 18 17 16 17 16 15 15 14 12 12 12 9 10 7 6 6 4 3 4 4
4 5 4 4 3 9 3 3 4 7 3 3 4 8 9 6 9 7 6 7 13 14 15 16 15 16 15 16 18 18 16 14 13 14 10 9 9 9 7 7 4 3 4 4
7 5 6 4 3 2 5 7 3 2 2 5 4 5 6 9 11 8 6 9 11 11 13 12 14 17 15 15 17 15 14 16 14 13 10 8 9 9 7 6 7 6 5 4
6 3 10 2 4 7 2 1 5 4 4 6 2 6 8 10 10 9 8 9 10 13 13 13 12 12 14 13 14 15 14 14 12 11 10 9 8 8 8 7 7 7 6 6
5 5 6 12 3 2 6 8 6 5 5 1 4 7 6 10 8 6 11 8 8 8 11 12 11 13 13 15 14 15 14 14 14 12 12 12 8 8 10 9 9 8 8 6
4 1 3 10 5 2 5 5 5 4 3 7 5 8 1 5 8 8 9 7 6 8 7 7 7 11 13 13 13 13 12 13 12 13 13 11 10 9 11 11 10 8 7 5
5 3 6 6 6 2 5 4 5 6 4 5 6 8 12 10 9 8 7 6 6 5 6 6 6 7 8 10 11 12 12 10 10 12 12 12 13 13 12 9 7 7 8 9
4 5 3 6 8 4 6 6 6 7 5 6 5 8 9 8 7 5 6 6 5 6 7 8 9 8 8 8 7 7 9 12 11 11 10 11 8 9 5 6 8 8 8 10
2 1 1 4 5 3 5 8 6 6 3 6 4 6 9 4 2 4 8 5 4 6 7 6 7 7 8 10 9 9 11 12 13 11 10 7 6 5 4 5 6 6 6 5
2 4 2 4 4 7 6 8 8 7 5 7 5 9 3 4 7 7 7 8 8 8 9 8 8 7 7 8 10 13 11 9 10 9 8 10 8 9 6 4 5 5 3 4
6 4 4 4 4 5 7 5 6 8 5 4 5 6 6 4 1 4 7 8 10 9 9 8 7 6 4 4 7 7 10 10 9 8 9 9 10 10 8 6 5 4 3 5
6 5 3 4 6 5 12 4 4 4 4 0 2 7 4 4 3 6 8 9 12 11 8 6 5 4 2 4 4 10 10 12 12 9 10 9 10 9 9 6 5 3 4 4
5 4 4 3 6 9 9 3 4 3 5 6 7 6 4 1 1 6 8 9 8 7 7 7 6 6 5 5 8 8 10 14 12 10 10 9 9 10 7 6 6 3 2 3
1 1 5 4 4 6 3 8 3 4 4 9 5 9 4 6 5 5 6 5 6 7 8 7 8 8 9 9 11 9 15 6 13 11 12 10 11 9 7 6 5 5 5 5
6 5 4 2 2 6 3 5 3 2 4 6 6 7 9 9 8 2 5 4 7 12 9 6 5 7 11 11 10 9 17 7 11 12 12 12 10 8 7 8 6 6 6 6
2 6 4 7 5 1 2 5 3 2 3 5 5 8 12 13 6 8 7 7 4 11 9 8 8 7 6 8 9 15 12 11 10 11 12 11 10 8 7 9 7 6 6 7
2 2 2 2 3 3 8 4 5 4 5 8 10 8 8 9 6 6 7 6 6 4 8 8 10 9 8 9 10 11 12 10 10 11 10 8 9 8 8 6 6 6 4 5
4 4 3 4 8 8 5 3 4 4 6 6 6 6 6 6 5 3 6 8 7 6 6 8 9 10 10 11 12 12 12 12 11 10 9 8 8 7 6 4 4 5 3 1
5 6 4 9 8 7 8 6 4 5 9 7 5 9 8 3 6 3 5 7 10 11 8 7 8 11 10 12 13 12 12 12 13 11 7 6 6 5 4 4 3 1 2 3
Wind_Direction
96 109 197 201 183 192 224 256 278 227 209 178 208 240 223 192 199 204 205 209 210 214 210 191 189 182 165 171 167 177 181 196 159 146 156 182 204 200 213 206 228 227 212 188
43 232 208 148 181 195 244 287 278 300 201 186 271 235 227 195 207 204 203 208 211 220 190 191 184 184 183 180 183 175 196 188 191 173 167 170 174 217 176 159 223 218 205 197
166 260 135 156 168 180 216 211 227 240 41 213 359 306 205 241 210 215 216 215 206 208 197 189 185 188 184 187 188 188 191 194 187 181 140 114 61 28 115 229 241 206 198 196
227 263 228 144 236 155 258 210 239 264 102 247 160 264 285 218 223 221 217 211 209 199 201 192 184 187 189 197 191 189 186 187 191 167 178 185 180 192 213 199 199 208 210 199
239 184 181 160 215 160 236 167 218 217 179 43 263 67 268 171 246 236 214 207 210 201 192 189 192 191 194 183 188 188 183 186 193 186 190 195 210 211 197 213 237 222 229 234
234 220 168 200 188 184 106 102 39 50 104 61 233 172 274 241 227 264 204 205 202 197 197 196 194 192 186 185 184 186 182 192 191 191 188 191 205 209 195 222 235 234 217 237
336 250 236 179 176 150 98 76 341 348 9 217 54 132 241 267 247 237 220 209 199 187 188 184 182 182 177 182 184 189 186 197 189 194 198 196 202 204 207 214 212 216 224 205
186 317 174 196 179 175 173 156 161 219 203 243 89 228 251 249 282 257 225 193 188 183 186 186 186 187 181 184 183 186 192 196 190 194 203 197 200 206 210 210 207 219 218 221
164 272 277 195 193 138 194 183 185 107 38 68 241 290 299 294 291 262 225 177 192 192 188 190 182 188 187 183 188 191 191 195 194 197 196 195 193 193 198 204 200 213 210 220
218 284 229 237 153 72 163 157 80 5 186 259 276 280 237 292 282 291 235 215 199 194 197 190 186 187 184 189 193 191 193 195 193 195 198 199 202 201 198 185 201 206 223 226
140 143 257 51 186 191 113 210 57 127 137 181 226 260 220 233 248 274 260 230 208 199 191 194 185 188 192 180 183 191 188 181 185 182 185 195 198 201 198 207 215 207 202 204
202 159 242 230 280 187 177 192 143 129 237 202 160 264 226 235 270 274 280 257 198 201 193 193 183 178 179 184 184 184 189 186 186 182 184 190 185 195 203 208 213 203 213 204
181 301 347 335 358 22 198 187 151 120 95 192 157 269 83 286 289 276 270 251 193 191 180 175 167 182 186 186 185 188 187 193 181 182 181 188 196 205 217 211 209 201 209 204
117 131 173 199 220 258 293 194 162 140 132 175 218 266 288 282 260 275 280 251 197 145 154 146 154 180 182 186 181 179 183 176 171 177 186 185 192 199 209 206 184 181 186 189
97 193 216 261 257 217 242 261 178 170 218 164 226 199 256 268 273 249 244 229 171 140 150 168 169 172 176 172 163 166 171 160 171 182 183 201 185 193 166 173 194 200 196 207
15 249 325 276 276 330 266 262 229 248 180 263 231 253 221 252 214 217 218 220 179 165 166 168 168 169 171 172 168 167 172 182 175 173 187 149 117 137 178 197 198 203 214 238
133 127 80 267 341 321 284 223 214 218 203 169 178 227 208 237 225 234 226 177 187 179 167 169 167 176 181 180 182 193 191 168 163 160 156 140 148 111 84 93 98 79 68 34
156 157 150 222 357 261 246 284 254 223 247 239 295 253 233 257 254 231 206 188 176 176 164 179 178 183 183 189 178 130 136 132 125 112 109 115 117 113 105 80 62 46 23 21
191 144 204 181 204 284 300 354 27 354 272 156 250 297 322 1 347 280 211 200 194 174 166 163 162 157 130 60 92 125 119 115 112 125 112 112 122 117 94 100 91 47 35 20
90 76 161 161 178 220 220 306 335 263 258 348 353 318 303 146 7 258 194 180 178 158 155 148 132 125 129 122 99 105 117 122 127 128 114 108 101 96 103 106 88 67 50 21
15 19 190 205 237 282 260 274 284 168 245 318 313 308 251 219 214 265 219 211 153 150 154 153 122 134 131 117 118 132 93 141 123 121 100 99 88 100 113 106 95 80 52 29
185 178 211 121 178 260 337 352 184 248 300 282 304 304 297 267 275 272 223 225 160 150 149 137 101 105 121 131 127 138 109 152 102 111 115 105 121 128 128 113 98 68 47 35
239 192 195 186 219 236 298 253 263 199 273 285 270 292 292 291 300 217 197 176 226 157 147 127 129 98 79 86 115 118 120 115 124 113 110 113 113 113 99 85 74 62 45 25
255 163 202 22 283 255 300 234 234 216 249 282 300 297 284 291 315 215 176 170 152 161 143 124 137 123 109 96 93 108 120 120 112 112 116 123 115 102 91 94 95 83 57 38
214 152 212 253 289 304 276 241 201 258 257 267 285 272 280 316 351 209 178 151 142 137 125 137 141 133 129 115 124 138 140 138 132 129 124 113 107 111 113 108 102 90 85 110
182 206 211 255 231 219 258 273 278 273 296 290 306 315 310 295 304 156 159 149 147 146 141 135 131 131 133 134 138 141 149 148 135 126 131 136 128 121 113 91 76 27 262 276